Find Skynet 4F

NORAD ID: 26695 Int'l Des: 2001-005 Owner: MOD Country: UK operational
HEOCIRCULAR

Current View

Loading 3D Globe...

About Skynet 4F

Description loading...

Upcoming Passes

Passes for default location (London). Set your location on the main map for personalized predictions.

Altitude History

Loading altitude history...

Two-Line Element Set

1 26695U 01005B 26149.62158707 -.00000068 00000-0 00000-0 0 9997
2 26695 12.1061 18.5900 0004070 224.0268 62.7522 0.99150651 92426
Epoch: May 29, 2026 • Age: 13 hours

Current Status

Altitude 36108.3 km
Velocity 3.06 km/s
Sub-Earth Point 10.95°N, 167.22°W
Launch Date Feb 7, 2001
Age 25.3 years
Type other

Technical Details

Classification Payload
Mass 1489.00 kg
Dry Mass 830.00 kg
Total Mass 2119.00 kg
Length 1.80 m
Diameter 1.90 m
Span 16.10 m
Shape Box + 2 Pan
Manufacturer ASTUK
Bus Type ECS
Phase Status Renamed
Owner/State MOD/UK

Most Searched